Location: Staunton
(38.1490°N, 79.0720°W)
Time: 00:35:02
(UTC-05:00)

ISS - Visible Passes

Search period start: 16 December 2018 00:00
Search period end: 26 December 2018 00:00
Orbit: 401 x 408 km, 51.6° (Epoch: 16 December)

Date Brightness Start Highest point End Pass type
(mag) Time Alt. Az. Time Alt. Az. Time Alt. Az.
21 Dec -0.4 06:30:18 10° SSE 06:31:53 13° SE 06:33:29 10° E visible
23 Dec -1.9 06:20:37 10° SSW 06:23:36 33° SE 06:26:35 10° ENE visible
24 Dec -0.8 05:29:19 10° S 05:31:29 17° SE 05:33:39 10° E visible
25 Dec -3.9 06:12:42 15° SW 06:15:23 89° NW 06:18:41 10° NE visible
